Voltar ao catálogo

METEOR 2-8 DEB

AtivoPO
NORAD 36861·DEBRIS·🇷🇺 Russia

Lançado Mar 25, 1982 de Plesetsk Cosmodrome

Loading…

Próximas Passagens (próximas 24 horas)

TLE

EnvelhecendoSource: Space-Track

Época: Sep 6, 2026, 08:38 UTC

1 36861U 82025AY  26249.35979339  .00001849  00000-0  69654-3 0  9997
2 36861  82.5018 113.9639 0025176 171.0979 189.0659 14.30854095677611

Acompanhe METEOR 2-8 DEB em tempo real com AllMySat

Download on the App Store